Flag for U.S.A. Weather past 2 weeks in New Salem, North Dakota, U.S.A.

Now
46 °F

Passing clouds.


Feels Like: 44 °F
Forecast: 36 / 60 °F
Wind: 5 mph from North

Location: Bismarck Municipal Airport


UV Index: 3 (Moderate)

Visibility: 10 mi


Pressure: 29.72 "Hg

Humidity: N/A

Dew point: N/A

Location of New SalemLocation

Historic Weather in New Salem

°F

New Salem temperature yesterday

Maximum temperature yesterday: 71 °F (at 3:52 PM)
Minimum temperature yesterday: 30 °F (at 4:52 AM)
Average temperature yesterday: 52 °F

Past Weeks' High & Low Weather Summary

 TemperatureHumidityPressure
High78 °F (Apr 9, 2:52 PM)96% (Apr 12, 5:52 AM)30.39 "Hg (Apr 12, 5:52 AM)
Low16 °F (Apr 14, 11:52 PM)20% (Apr 9, 2:52 PM)29.51 "Hg (Apr 9, 3:52 PM)
Average43 °F55%29.98 "Hg
* Reported Apr 8 8:52 PM — Apr 23 8:52 PM, New Salem, Weather by CustomWeather, © 2014

Note: Actual official high and low records may vary slightly from our data, if they occured in-between our weather recording intervals... More about our weather records

Advertising

Historic Weather Conditions — Data for Previous 24 hours

 ConditionsComfort  
Time TempWeatherWind HumidityBarometerVisibility
8:52 PM
Apr 23
50 °FOvercast.8 mphN/A29.70 "Hg10 mi
7:52 PM51 °FOvercast.12 mph66%29.68 "Hg10 mi
6:52 PM53 °FOvercast.20 mph61%29.65 "Hg10 mi
5:52 PM55 °FOvercast.8 mph72%29.59 "Hg10 mi
4:52 PM56 °FOvercast.14 mph67%29.59 "Hg10 mi
3:52 PM55 °FMostly cloudy.14 mph69%29.57 "Hg10 mi
2:52 PM57 °FOvercast.14 mph53%29.55 "Hg10 mi
1:52 PM56 °FPartly sunny.32 mph55%29.56 "Hg10 mi
12:52 PM53 °FLight rain. Overcast.22 mph66%29.56 "Hg9 mi
11:52 AM57 °FScattered clouds.33 mph49%29.56 "Hg10 mi
10:52 AM58 °FSunny.35 mph50%29.55 "Hg10 mi
9:52 AM53 °FPassing clouds.18 mph56%29.59 "Hg9 mi
8:52 AM51 °FSunny.23 mph63%29.60 "Hg10 mi
7:52 AM50 °FSunny.23 mph63%29.63 "Hg10 mi
6:52 AM51 °FPassing clouds.23 mph61%29.60 "Hg10 mi
5:52 AM51 °FOvercast.20 mph63%29.63 "Hg10 mi
4:52 AM51 °FPassing clouds.21 mph66%29.65 "Hg10 mi
3:52 AM51 °FPassing clouds.25 mph66%29.66 "Hg10 mi
2:52 AM52 °FOvercast.24 mph64%29.70 "Hg10 mi
1:52 AM51 °FOvercast.22 mph71%29.69 "Hg10 mi
12:52 AM57 °FPassing clouds.21 mph41%29.70 "Hg10 mi
11:52 PM
Apr 22
57 °FPassing clouds.20 mph39%29.73 "Hg10 mi
10:52 PM57 °FPassing clouds.23 mph41%29.75 "Hg10 mi
Weather by CustomWeather, © 2014

See weather overview